Regional Weather Roundup
Issued by NWS

Home | Current Version | Previous Version | Graphics & Text | Print | Product List | Glossary On
Versions: 1 2 3 4 5 6 7 8 9 10 11 12 13 14 15 16 17 18 19 20 21 22 23 24 25 26 27 28 29 30 31 32 33 34 35 36 37 38 39 40 41 42 43 44 45 46 47 48 49 50
000
ASUS43 KDTX 100701
RWRMI
MICHIGAN HOURLY REGIONAL WEATHER ROUNDUP
NATIONAL WEATHER SERVICE DETROIT/PONTIAC MI
300 AM EDT THU JUL 10 2014

NOTE: "FAIR" INDICATES FEW OR NO CLOUDS BELOW 12,000 FEET WITH NO
SIGNIFICANT WEATHER AND/OR OBSTRUCTION TO VISIBILITY.

MIZ047>049-052>055-059>063-066>070-074>076-081>083-100800-
SOUTHEAST LOWER MICHIGAN

CITY           SKY/WX    TMP DP  RH WIND       PRES   REMARKS
ADRIAN         CLEAR     57  53  86 N3        30.07R
ALMA           PTCLDY    55  52  91 CALM      30.09R
ANN ARBOR      FOG       52  50  93 CALM      30.06R VSB 1
BAD AXE        MOCLDY    52  51  98 CALM      30.08R
CARO           CLOUDY    57  57 100 CALM      30.07R
DETROIT CITY   MOCLDY    68  54  60 CALM      30.05S
DETROIT        MOCLDY    65  58  78 CALM      30.06R
FLINT          CLEAR     56  53  90 CALM      30.06S
GROSSE ILE     CLEAR     61  57  88 CALM      30.04R
HILLSDALE      CLEAR     57  56  97 CALM      30.08R
HOWELL         CLEAR     55  54  95 W3        30.06S

CITY           SKY/WX    TMP DP  RH WIND       PRES   REMARKS
JACKSON        CLEAR     54  52  93 W3        30.07S
LAMBERTVILLE   CLEAR     59  54  82 CALM      30.05S
LANSING        CLEAR     56  52  86 NW6       30.08R
LAPEER         CLOUDY    58  56  92 CALM      30.06S
MASON          CLEAR     56  55  95 CALM      30.08R
MONROE         CLEAR     57  55  94 CALM      30.03S
MT. CLEMENS    CLEAR     57  55  93 CALM      30.04S
PONTIAC        PTCLDY    59  55  87 CALM      30.05R
PORT HOPE        N/A     55  53  93 SW6       30.06R
PORT HURON     CLOUDY    55  55 100 CALM      30.06R
TRI CITIES     MOCLDY    59  52  77 N7        30.09R
TROY           PTCLDY    61  55  82 CALM      30.07R
SAGINAW HB     MOCLDY    59  55  88 NW5       30.07R
$$
MIZ043>046-050>051-056>058-064>065-071>073-077>080-100800-
SOUTHWEST LOWER MICHIGAN

CITY           SKY/WX    TMP DP  RH WIND       PRES   REMARKS
BATTLE CREEK   CLEAR     57  53  86 NW3       30.09R
BENTON HARBOR  CLEAR     55  53  93 CALM      30.09R
BIG RAPIDS     CLEAR     52  52 100 CALM      30.10R
COLDWATER      CLEAR     56  54  95 CALM      30.08S
FREMONT        FAIR      54  54 100 CALM      30.09R
HOLLAND        CLEAR     57  54  89 CALM      30.10R
GRAND RAPIDS   CLEAR     59  54  83 NW3       30.10R
IONIA          FAIR      56  51  83 NW3       30.08R
KALAMAZOO      CLEAR     57  53  86 N5        30.09R
LUDINGTON        N/A     49  49  97 CALM      30.11R FOG
MARSHALL       CLEAR     53  52  97 CALM      30.08R
MOUNT PLEASANT CLEAR     54  52  93 CALM      30.09R
MUSKEGON       CLEAR     57  52  83 CALM      30.10R
SOUTH HAVEN    CLEAR     53  53 100 CALM      30.09R
$$
MIZ016>042-100800-
NORTHERN LOWER MICHIGAN

CITY           SKY/WX    TMP DP  RH WIND       PRES   REMARKS
ALPENA         CLEAR     48  46  93 W3        30.08R
BEAVER ISLAND  CLEAR     43  43 100 CALM      30.09R
BELLAIRE       CLEAR     46  45  95 CALM      30.09R FOG
CADILLAC       FOG       45  44  96 CALM      30.10R VSB 1/2
CHARLEVOIX     CLEAR     49  48  96 CALM      30.12R
FRANKFORT      CLEAR     48  45  89 CALM      30.10R
GAYLORD        CLEAR     48  45  89 CALM      30.09R
GRAYLING       FOG       40  40 100 CALM      30.11R VSB 1/2
HARBOR SPRINGS CLEAR     48  47  95 CALM      30.08R
HOUGHTON LAKE  CLEAR     47  45  93 CALM      30.10R FOG
MANISTEE       CLOUDY    48  45  87 CALM      30.11R
OSCODA         CLEAR     51  49  92 CALM      30.07R
PELLSTON       CLEAR     43  42  97 CALM      30.09R
ROGERS CITY    CLEAR     47  47  99 SW3       30.09R
TRAVERSE CITY  CLEAR     50  48  93 CALM      30.09R
$$
MIZ007>008-015-100800-
EASTERN UPPER MICHIGAN

CITY           SKY/WX    TMP DP  RH WIND       PRES   REMARKS
KINROSS        PTCLDY    45  45 100 W6        30.07R
MACKINAC ISLAN CLEAR     47  47  97 W5        30.08R
NEWBERRY       CLEAR     42  41  97 CALM      30.07R
S. S. MARIE    PTCLDY    48  44  86 NW7       30.06R
$$
MIZ004>006-011>014-085-100800-
CENTRAL UPPER MICHIGAN

CITY           SKY/WX    TMP DP  RH WIND       PRES   REMARKS
MANISTIQUE     CLEAR     41  41  97 CALM      30.08R
ESCANABA       CLEAR     46  43  87 CALM      30.07S
MENOMINEE      CLEAR     50  48  93 CALM      30.07S
SAWYER-GWINN   CLEAR     46  43  90 CALM      30.08R
$$
MIZ001>003-009>011-084-100800-
WESTERN UPPER MICHIGAN

CITY           SKY/WX    TMP DP  RH WIND       PRES   REMARKS
IRON MOUNTAIN  FOG       45  44  97 CALM      30.07R VSB 1/2
HOUGHTON       CLEAR     47  43  86 CALM      30.04S
COPPER HARBOR    N/A     53  44  71 W5        30.04R
$$

ABBREVIATIONS USED IN REMARKS
   TC - TEMPERATURE IN CELSIUS
  WCI - WIND CHILL INDEX
   HX - HEAT INDEX
  VSB - VISIBILITY




USA.gov is the U.S. government's official web portal to all federal, state and local government web resources and services.